Hammond, LA

2:57 PM CST on December 12, 2019 (GMT -0600)
Hammond Municipal

Weather History for KHDC - November, 2019

Change the Weather History Date:

Monday, November 11, 2019

  Actual Average (WUND) Record (WUND)
Temperature  
Mean Temperature 62 °F -  
Max Temperature 77 °F - - (-1)
Min Temperature 46 °F - - (-1)
Degree Days  
Heating Degree Days 4    
Growing Degree Days 12 (Base 50)    
Moisture  
Dew Point 58 °F    
Average Humidity 85    
Maximum Humidity 100    
Minimum Humidity 61    
Precipitation  
Precipitation 0.01 in - - ()
Sea Level Pressure  
Sea Level Pressure 30.04 in    
Wind  
Wind Speed 2 mph ()    
Max Wind Speed 18 mph    
Max Gust Speed 32 mph    
Visibility 10.0 miles    
Events      
Averages and records for this station are not official NWS values.
T = Trace of Precipitation, MM = Missing Value Source: Averaged Metar Reports

Daily Weather History Graph

Daily Weather History Graph

Search for Another Location

Airport or City:

Astronomy

Nov. 11, 2019 Rise Set
Actual Time 6:24 AM CST 5:06 PM CST
Civil Twilight 5:58 AM CST 5:32 PM CST
Nautical Twilight 5:29 AM CST 6:00 PM CST
Astronomical Twilight 5:01 AM CST 6:29 PM CST
Moon 4:56 PM CST (11/11) 5:23 AM CST (11/11)
Length of Visible Light 11h 33m
Length of Day
10h 42m
Waxing Gibbous, 99% of the Moon is Illuminated
Nov 11
Waxing Gibbous
Nov 12
Full
Nov 19
Last Quarter
Nov 26
New
Dec 4
First Quarter

Hourly Weather History & Observations

Time (CST) Temp. Dew Point Humidity Pressure Visibility Wind Dir Wind Speed Gust Speed Precip Events Conditions
12:15 AM 50.0 °F 50.0 °F 100% 30.09 in 10.0 mi Calm Calm - N/A   Clear
12:35 AM 48.2 °F 48.2 °F 100% 30.08 in 10.0 mi Calm Calm - N/A   Clear
1:35 AM 48.2 °F 48.2 °F 100% 30.07 in 10.0 mi Calm Calm - N/A   Clear
1:55 AM 48.2 °F 48.2 °F 100% 30.07 in 10.0 mi Calm Calm - N/A   Clear
2:15 AM 46.4 °F 46.4 °F 100% 30.07 in 10.0 mi Calm Calm - N/A   Clear
2:35 AM 46.4 °F 46.4 °F 100% 30.06 in 10.0 mi Calm Calm - N/A   Clear
2:55 AM 46.4 °F 46.4 °F 100% 30.06 in 10.0 mi Calm Calm - N/A   Clear
3:15 AM 46.4 °F 46.4 °F 100% 30.07 in 10.0 mi Calm Calm - N/A   Clear
3:55 AM 46.4 °F 44.6 °F 93% 30.06 in 10.0 mi Calm Calm - N/A   Clear
4:15 AM 46.4 °F 46.4 °F 100% 30.06 in 10.0 mi Calm Calm - N/A   Clear
4:55 AM 46.4 °F 46.4 °F 100% 30.06 in 10.0 mi Calm Calm - N/A   Clear
5:35 AM 50.0 °F 46.4 °F 87% 30.06 in 10.0 mi Calm Calm - N/A   Clear
5:55 AM 51.8 °F 48.2 °F 88% 30.06 in 10.0 mi Calm Calm - N/A   Clear
6:15 AM 51.8 °F 48.2 °F 88% 30.07 in 10.0 mi Calm Calm - N/A   Clear
6:55 AM 51.8 °F 50.0 °F 94% 30.07 in 10.0 mi Calm Calm - N/A   Clear
7:15 AM 53.6 °F 50.0 °F 88% 30.08 in 10.0 mi Calm Calm - N/A   Scattered Clouds
7:35 AM 55.4 °F 51.8 °F 88% 30.09 in 10.0 mi Calm Calm - N/A   Overcast
8:15 AM 60.8 °F 55.4 °F 82% 30.09 in 10.0 mi ESE 4.6 mph - N/A   Clear
8:35 AM 60.8 °F 55.4 °F 82% 30.09 in 10.0 mi East 3.5 mph - N/A   Clear
8:55 AM 62.6 °F 55.4 °F 77% 30.09 in 10.0 mi ESE 4.6 mph - N/A   Scattered Clouds
9:15 AM 64.4 °F 57.2 °F 77% 30.09 in 10.0 mi Calm Calm - N/A   Scattered Clouds
9:35 AM 64.4 °F 59.0 °F 83% 30.09 in 10.0 mi Calm Calm - N/A   Clear
9:55 AM 68.0 °F 59.0 °F 73% 30.09 in 10.0 mi SSE 3.5 mph - N/A   Mostly Cloudy
10:15 AM 69.8 °F 60.8 °F 73% 30.09 in 10.0 mi South 4.6 mph - N/A   Scattered Clouds
10:35 AM 71.6 °F 60.8 °F 69% 30.08 in 10.0 mi SSE 4.6 mph - N/A   Clear
10:55 AM 73.4 °F 62.6 °F 69% 30.07 in 10.0 mi South 5.8 mph - N/A   Scattered Clouds
11:15 AM 73.4 °F 62.6 °F 69% 30.06 in 10.0 mi SSE 6.9 mph - N/A   Clear
11:35 AM 75.2 °F 64.4 °F 69% 30.05 in 10.0 mi South 9.2 mph - N/A   Clear
12:15 PM 77.0 °F 62.6 °F 61% 30.03 in 10.0 mi SSE 6.9 mph - N/A   Clear
12:35 PM 77.0 °F 64.4 °F 65% 30.02 in 10.0 mi SSE 8.1 mph - 0.01 in   Scattered Clouds
12:55 PM 77.0 °F 62.6 °F 61% 30.01 in 10.0 mi South 6.9 mph - 0.01 in   Scattered Clouds
1:15 PM 77.0 °F 64.4 °F 65% 30.01 in 10.0 mi SSE 8.1 mph - N/A   Scattered Clouds
1:35 PM 77.0 °F 62.6 °F 61% 30.00 in 10.0 mi South 6.9 mph - N/A   Mostly Cloudy
1:55 PM 77.0 °F 62.6 °F 61% 30.00 in 10.0 mi South 8.1 mph - N/A   Scattered Clouds
2:55 PM 73.4 °F 64.4 °F 73% 30.00 in 10.0 mi SE 5.8 mph - N/A   Mostly Cloudy
3:15 PM 73.4 °F 64.4 °F 73% 29.99 in 10.0 mi ESE 6.9 mph - N/A   Scattered Clouds
3:55 PM 73.4 °F 64.4 °F 73% 29.99 in 10.0 mi SE 5.8 mph - N/A   Clear
4:15 PM 71.6 °F 64.4 °F 78% 29.99 in 10.0 mi SE 4.6 mph - N/A   Clear
4:35 PM 71.6 °F 64.4 °F 78% 29.99 in 10.0 mi SSE 4.6 mph - N/A   Clear
5:15 PM 69.8 °F 64.4 °F 83% 29.98 in 10.0 mi Calm Calm - N/A   Scattered Clouds
5:35 PM 69.8 °F 64.4 °F 83% 29.99 in 10.0 mi Calm Calm - N/A   Mostly Cloudy
5:55 PM 69.8 °F 64.4 °F 83% 29.99 in 10.0 mi Calm Calm - N/A   Overcast
6:15 PM 68.0 °F 64.4 °F 88% 30.00 in 10.0 mi Calm Calm - N/A   Overcast
6:35 PM 68.0 °F 64.4 °F 88% 30.00 in 10.0 mi Calm Calm - N/A   Overcast
7:15 PM 68.0 °F 64.4 °F 88% 30.00 in 10.0 mi South 3.5 mph - N/A   Scattered Clouds
7:35 PM 68.0 °F 64.4 °F 88% 30.00 in 10.0 mi Calm Calm - N/A   Scattered Clouds
7:55 PM 66.2 °F 64.4 °F 94% 30.00 in 10.0 mi Calm Calm - N/A   Mostly Cloudy
8:15 PM 66.2 °F 64.4 °F 94% 30.01 in 10.0 mi Calm Calm - N/A   Mostly Cloudy
8:55 PM 64.4 °F 64.4 °F 100% 30.01 in 10.0 mi Calm Calm - N/A   Mostly Cloudy
9:15 PM 64.4 °F 64.4 °F 100% 30.01 in 10.0 mi Calm Calm - N/A   Mostly Cloudy
9:35 PM 64.4 °F 64.4 °F 100% 30.01 in 10.0 mi Calm Calm - N/A   Overcast
9:55 PM 64.4 °F 64.4 °F 100% 30.02 in 10.0 mi NW 5.8 mph - N/A   Overcast
10:35 PM 64.4 °F 64.4 °F 100% 30.01 in 10.0 mi Calm Calm - N/A   Mostly Cloudy
11:15 PM 64.4 °F 64.4 °F 100% 30.01 in 10.0 mi Calm Calm - N/A   Overcast
11:35 PM 64.4 °F 64.4 °F 100% 30.02 in 10.0 mi NW 5.8 mph - N/A   Overcast
11:55 PM 59.0 °F 57.2 °F 94% 30.05 in 10.0 mi NNW 18.4 mph 32.2 mph N/A   Overcast